Regional Weather Roundup
Issued by NWS

Home | Current Version | Previous Version | Text Only | Print | Product List | Glossary Off
Versions: 1 2 3 4 5 6 7 8 9 10 11 12 13 14 15 16 17 18 19 20 21 22 23 24 25 26 27 28 29 30 31 32 33 34 35 36 37 38 39 40 41 42 43 44 45 46 47 48 49 50

000
ASUS43 KDTX 200301
RWRMI
MICHIGAN HOURLY REGIONAL WEATHER ROUNDUP
NATIONAL WEATHER SERVICE DETROIT/PONTIAC MI
1100 PM EDT SAT APR 19 2014

NOTE: "FAIR" INDICATES FEW OR NO CLOUDS BELOW 12,000 FEET WITH NO
SIGNIFICANT WEATHER AND/OR OBSTRUCTION TO VISIBILITY.

MIZ047>049-052>055-059>063-066>070-074>076-081>083-200400-
SOUTHEAST LOWER MICHIGAN

CITY           SKY/WX    TMP DP  RH WIND       PRES   REMARKS
ADRIAN         CLEAR     41  30  65 E6        30.34F
ALMA           MOCLDY    40  35  83 NE3       30.34S
ANN ARBOR      CLEAR     38  29  70 CALM      30.35S
BAD AXE        CLEAR     34  29  83 CALM      30.38S
CARO           CLEAR     42  34  74 E5        30.36S
DETROIT CITY   CLEAR     44  28  53 CALM      30.36F
DETROIT        CLEAR     43  29  57 CALM      30.36F
FLINT          CLEAR     48  30  49 S7        30.36R
GROSSE ILE     CLEAR     43  30  61 CALM      30.34F
HILLSDALE      CLEAR     41  29  61 E3        30.33S
HOWELL         CLEAR     43  29  58 S6        30.35R

CITY           SKY/WX    TMP DP  RH WIND       PRES   REMARKS
JACKSON        CLEAR     43  30  60 SE5       30.34S
LAMBERTVILLE   CLEAR     43  32  65 CALM      30.35S
LANSING        PTCLDY    48  29  47 S12       30.35R
LAPEER         FAIR      41  33  72 SE3       30.36R
MASON          PTCLDY    44  32  63 S3        30.35R
MONROE         CLEAR     39  32  75 CALM      30.34F
MT. CLEMENS    CLEAR     39  32  77 SE2       30.35F
PONTIAC        PTCLDY    44  29  55 S5        30.34F
PORT HOPE        N/A     34  29  82 CALM      30.36S
PORT HURON     CLEAR     34  32  93 CALM      30.38S
TRI CITIES     PTCLDY    39  35  86 N8        30.35R WCI  33
TROY           CLEAR     44  27  51 CALM      30.37F
SAGINAW HB     PTCLDY    45  32  61 E5        30.35R
YPSILANTI      CLEAR     43  29  57 CALM      30.35F
$$
MIZ043>046-050>051-056>058-064>065-071>073-077>080-200400-
SOUTHWEST LOWER MICHIGAN

CITY           SKY/WX    TMP DP  RH WIND       PRES   REMARKS
BATTLE CREEK   PTCLDY    49  25  39 SE7       30.35R
BENTON HARBOR  MOCLDY    52  31  44 SE10      30.30R
BIG RAPIDS     MOCLDY    45  34  66 SE3       30.30S
COLDWATER      PTCLDY    44  28  51 CALM      30.33S
FREMONT        FAIR      50  26  39 SE7       30.28S
HOLLAND        MOCLDY    53  33  46 SE12      30.30R
GRAND RAPIDS   MOCLDY    51  31  46 S7        30.32R
IONIA          FAIR      48  30  50 S10       30.32S
KALAMAZOO      PTCLDY    49  27  42 SE6       30.34R
LUDINGTON      CLOUDY    39  33  80 CALM      30.27S
MARSHALL       PTCLDY    44  28  53 CALM      30.34S
MOUNT PLEASANT MOCLDY    41  32  69 E6        30.33S
MUSKEGON       CLOUDY    50  30  46 SE6       30.28S
SOUTH HAVEN    MOCLDY    53  30  41 SE8       30.30S
$$
MIZ016>042-200400-
NORTHERN LOWER MICHIGAN

CITY           SKY/WX    TMP DP  RH WIND       PRES   REMARKS
ALPENA         CLEAR     32  25  75 SE7       30.35S WCI  26
BEAVER ISLAND  MOCLDY    42  26  53 SE3       30.25F
BELLAIRE       MOCLDY    47  30  53 CALM      30.28F
CADILLAC       MOCLDY    43  32  65 SE6       30.28S
CHARLEVOIX     MOCLDY    47  28  47 SE8       30.30S
FRANKFORT      MOCLDY    36  30  78 CALM      30.25F
GAYLORD        PTCLDY    39  25  57 S8        30.29S WCI  33
GRAYLING       FAIR      38  25  60 SE7       30.31S WCI  32
HARBOR SPRINGS PTCLDY    46  25  44 CALM      30.28R
HOUGHTON LAKE  PTCLDY    38  26  62 SE6       30.31F WCI  33
MANISTEE       MOCLDY    39  30  70 SE6       30.26F WCI  35
OSCODA         PTCLDY    35  29  79 SE5       30.35F WCI  31
PELLSTON       MOCLDY    39  25  57 SE9       30.29S WCI  33
ROGERS CITY    CLEAR     35  27  73 SE8       30.34F WCI  28
TRAVERSE CITY  MOCLDY    48  32  53 VRB5      30.26S
$$
MIZ007>008-015-200400-
EASTERN UPPER MICHIGAN

CITY           SKY/WX    TMP DP  RH WIND       PRES   REMARKS
KINROSS        MOCLDY    34  27  75 E13       30.29F WCI  25
MACKINAC ISLAN MOCLDY    39  26  59 SE12G20   30.28F WCI  32
NEWBERRY       CLOUDY    37  27  66 SE3       30.24R
S. S. MARIE    MOCLDY    35  21  56 SE10G17   30.31S WCI  27
MUNISING         N/A     38  32  79 S5        30.21R WCI  34
$$
MIZ004>006-011>014-085-200400-
CENTRAL UPPER MICHIGAN

CITY           SKY/WX    TMP DP  RH WIND       PRES   REMARKS
MANISTIQUE     CLOUDY    36  31  82 E6        30.24R WCI  31
ESCANABA       CLOUDY    37  30  75 E5        30.22S WCI  34
MENOMINEE      CLOUDY    45  34  65 S6        30.19F
SAWYER-GWINN   LGT RAIN  37  34  89 S13       30.16F WCI  29
$$
MIZ001>003-009>011-084-200400-
WESTERN UPPER MICHIGAN

CITY           SKY/WX    TMP DP  RH WIND       PRES   REMARKS
IRON MOUNTAIN  CLOUDY    44  32  62 SE7       30.15R
HOUGHTON       MOCLDY    38  31  76 E8        30.08S WCI  32
COPPER HARBOR    N/A     40  30  67 SW17G30   30.07F WCI  31
IRONWOOD       CLOUDY    48  37  66 S14G21    30.00S
$$

ABBREVIATIONS USED IN REMARKS
   TC - TEMPERATURE IN CELSIUS
  WCI - WIND CHILL INDEX
   HX - HEAT INDEX
  VSB - VISIBILITY




USA.gov is the U.S. government's official web portal to all federal, state and local government web resources and services.